IK3XJT Weather Reports


Display with metric or nautical units.
time (UTC)temp
F
wind
direction
speed
MPH
gust
MPH
rain 1hr
in
rain 24hr
in
rain mn
in
humidity
%
barometer
mb
20260507174909 65 117 3.0 9.0 0.00 0.04 0.01 77 1011.0
20260507174411 65 112 2.0 8.0 0.00 0.04 0.01 77 1011.0
20260507173816 65 96 2.0 8.0 0.00 0.04 0.01 77 1011.0
20260507173319 65 97 3.0 8.0 0.00 0.04 0.01 77 1010.8
20260507172822 65 111 3.0 7.0 0.00 0.04 0.01 76 1010.8
20260507172325 65 96 1.0 6.0 0.00 0.04 0.01 76 1010.8
20260507171830 66 94 2.0 5.0 0.00 0.04 0.01 76 1010.8
20260507171331 66 94 1.0 6.0 0.00 0.04 0.01 76 1010.8
20260507170837 66 94 2.0 9.0 0.00 0.04 0.01 76 1010.8
20260507170418 66 94 3.0 9.0 0.00 0.04 0.01 76 1010.9
20260507165857 66 116 4.0 9.0 0.00 0.04 0.01 75 1010.9
20260507165322 66 92 3.0 8.0 0.00 0.04 0.01 74 1010.9
20260507164843 67 103 5.0 8.0 0.00 0.04 0.01 73 1011.0
20260507164438 67 115 4.0 9.0 0.00 0.04 0.01 74 1011.0
20260507163838 67 90 5.0 8.0 0.00 0.04 0.01 74 1011.0
20260507163404 67 84 3.0 9.0 0.00 0.04 0.01 75 1011.0
20260507162847 67 100 5.0 9.0 0.00 0.04 0.01 74 1011.0
20260507162326 67 77 4.0 10.0 0.00 0.04 0.01 73 1011.0
20260507161850 67 91 6.0 11.0 0.00 0.04 0.01 72 1010.8
20260507161350 67 78 7.0 13.0 0.00 0.04 0.01 72 1010.8
20260507160835 67 150 7.0 13.0 0.00 0.04 0.01 72 1010.8
20260507160322 68 141 6.0 12.0 0.00 0.04 0.01 74 1010.6
20260507155902 68 103 6.0 11.0 0.00 0.04 0.01 74 1010.6
20260507155323 68 121 6.0 12.0 0.00 0.04 0.01 74 1010.6
20260507154436 67 108 4.0 8.0 0.00 0.04 0.01 75 1010.6
20260507153914 67 94 3.0 7.0 0.00 0.04 0.01 73 1010.6
20260507153315 67 81 3.0 8.0 0.00 0.04 0.01 70 1010.6
20260507152849 67 78 4.0 10.0 0.00 0.04 0.01 69 1010.6
20260507152329 67 101 4.0 10.0 0.00 0.04 0.01 67 1010.6
20260507151833 67 86 5.0 10.0 0.00 0.04 0.01 68 1010.5
20260507150847 67 94 4.0 8.0 0.00 0.04 0.01 71 1010.5
20260507150356 68 136 5.0 7.0 0.00 0.12 0.01 72 1010.5
20260507145903 68 90 0.0 5.0 0.00 0.12 0.01 70 1010.5
20260507145327 68 86 2.0 5.0 0.00 0.12 0.01 70 1010.5
20260507144851 69 80 0.0 5.0 0.00 0.12 0.01 68 1010.3
20260507144317 69 80 4.0 5.0 0.00 0.12 0.01 66 1010.3
20260507143821 70 211 1.0 6.0 0.00 0.12 0.01 68 1010.3
20260507143344 70 212 0.0 5.0 0.00 0.12 0.01 68 1010.0
20260507142830 70 212 1.0 5.0 0.00 0.12 0.01 67 1010.0
20260507141824 71 195 3.0 9.0 0.00 0.12 0.01 65 1010.0
20260507141345 71 176 2.0 11.0 0.00 0.12 0.01 64 1010.0
20260507140831 72 169 7.0 14.0 0.00 0.12 0.01 63 1010.0
20260507140341 73 154 7.0 17.0 0.00 0.75 0.01 62 1010.1
20260507135904 73 223 10.0 17.0 0.00 0.75 0.01 58 1010.1
20260507135345 74 194 6.0 13.0 0.00 0.75 0.01 57 1010.1
20260507134828 74 196 6.0 10.0 0.00 0.75 0.01 56 1010.1
20260507134418 73 142 0.0 0.0 0.00 0.75 0.01 56 1010.1
20260507133841 73 140 0.0 7.0 0.00 0.75 0.01 61 1010.1
20260507133419 73 140 3.0 7.0 0.00 0.75 0.01 61 1010.2
20260507132834 73 167 0.0 8.0 0.00 0.75 0.01 61 1010.2
20260507132317 73 190 2.0 8.0 0.00 0.75 0.01 58 1010.2
20260507131820 72 232 1.0 6.0 0.00 0.75 0.01 58 1010.2
20260507131350 72 245 3.0 9.0 0.00 0.75 0.01 60 1010.2
20260507130854 72 153 4.0 7.0 0.00 0.75 0.01 63 1010.2
20260507130335 71 164 2.0 11.0 0.00 0.75 0.01 62 1010.3
20260507125837 72 170 5.0 11.0 0.00 0.75 0.01 60 1010.3
20260507125400 72 172 5.0 9.0 0.00 0.75 0.01 58 1010.3
20260507124856 73 179 4.0 9.0 0.00 0.75 0.01 60 1010.2
20260507124813 73 179 4.0 9.0 0.00 0.75 0.01 60 1010.2
20260507124318 73 160 3.0 9.0 0.00 0.75 0.01 59 1010.2
20260507123824 74 170 2.0 9.0 0.00 0.75 0.01 57 1010.2
20260507123405 75 178 2.0 6.0 0.00 0.75 0.01 57 1010.4
20260507122906 74 175 2.0 7.0 0.00 0.75 0.01 59 1010.4
20260507121820 73 229 3.0 7.0 0.00 0.75 0.01 61 1010.5
20260507121345 73 178 2.0 6.0 0.00 0.75 0.01 61 1010.5
20260507120905 73 163 4.0 7.0 0.00 0.75 0.01 60 1010.5
20260507120325 73 181 2.0 10.0 0.00 0.75 0.01 62 1010.5
20260507115926 73 200 5.0 10.0 0.00 0.75 0.01 60 1010.5
20260507115405 73 174 3.0 10.0 0.00 0.75 0.01 59 1010.5
20260507114853 73 198 5.0 10.0 0.00 0.75 0.01 59 1010.5
20260507114337 73 215 6.0 9.0 0.00 0.75 0.01 57 1010.5
20260507113840 73 206 2.0 8.0 0.00 0.75 0.01 59 1010.5
20260507112833 73 303 0.0 0.0 0.00 0.75 0.01 58 1010.7
20260507112414 73 304 0.0 0.0 0.00 0.75 0.01 58 1010.7
20260507111835 72 308 0.0 6.0 0.00 0.75 0.01 58 1010.8
20260507111341 72 317 0.0 6.0 0.00 0.75 0.01 58 1010.8
20260507110824 72 286 0.0 8.0 0.00 0.75 0.01 58 1010.8
20260507110345 72 298 5.0 8.0 0.00 0.83 0.01 55 1011.0
20260507105827 72 210 2.0 7.0 0.00 0.83 0.01 58 1011.0
20260507105333 71 203 4.0 7.0 0.00 0.83 0.01 57 1011.0
20260507104914 71 282 3.0 8.0 0.00 0.83 0.01 55 1011.1
20260507104416 72 230 1.0 8.0 0.00 0.83 0.01 56 1011.1
20260507103833 72 228 3.0 8.0 0.00 0.83 0.01 56 1011.1
20260507103355 72 175 4.0 8.0 0.00 0.83 0.01 52 1011.1
20260507102833 71 190 3.0 8.0 0.00 0.83 0.01 58 1011.1
20260507102316 71 203 4.0 8.0 0.00 0.83 0.01 57 1011.1
20260507101817 71 252 5.0 7.0 0.00 0.83 0.01 57 1011.2
20260507101340 72 224 2.0 7.0 0.00 0.83 0.01 59 1011.2
20260507100837 71 210 1.0 7.0 0.00 0.83 0.01 59 1011.2
20260507100342 70 237 2.0 8.0 0.00 0.87 0.01 60 1011.2
20260507095823 71 282 6.0 8.0 0.00 0.87 0.01 60 1011.2
20260507095411 71 249 2.0 8.0 0.00 0.87 0.01 60 1011.2
20260507094839 70 242 2.0 6.0 0.00 0.87 0.01 61 1011.2
20260507094319 70 253 0.0 7.0 0.00 0.87 0.01 61 1011.2
20260507093846 70 273 4.0 8.0 0.00 0.87 0.01 60 1011.2
20260507092841 69 263 4.0 8.0 0.00 0.87 0.01 63 1011.1
20260507092342 70 263 0.0 7.0 0.00 0.87 0.01 64 1011.1
20260507091905 70 263 3.0 7.0 0.00 0.87 0.01 65 1011.2
20260507091406 69 270 1.0 6.0 0.00 0.87 0.01 64 1011.2
20260507090905 68 273 0.0 4.0 0.00 0.87 0.01 64 1011.2
20260507090347 68 273 0.0 4.0 0.00 0.91 0.01 67 1011.2
20260507085848 67 274 0.0 0.0 0.00 0.91 0.01 74 1011.2
20260507085327 67 274 0.0 5.0 0.00 0.91 0.01 74 1011.2
20260507084828 67 274 0.0 5.0 0.00 0.91 0.01 74 1011.1
20260507083843 67 281 3.0 6.0 0.00 0.91 0.01 71 1011.1
20260507083322 68 275 1.0 4.0 0.00 0.91 0.01 73 1011.1
20260507082843 67 279 3.0 7.0 0.00 0.91 0.01 73 1011.1
20260507082314 67 279 3.0 7.0 0.00 0.91 0.01 73 1011.1
20260507081838 67 281 2.0 6.0 0.00 0.91 0.01 76 1011.1
20260507081401 66 284 0.0 5.0 0.00 0.91 0.01 78 1011.1
20260507080900 66 284 0.0 7.0 0.00 0.91 0.01 77 1011.1
20260507080406 66 283 4.0 7.0 0.00 0.91 0.01 78 1011.0
20260507075906 66 67 0.0 5.0 0.00 0.91 0.01 80 1011.0
20260507075325 66 67 0.0 5.0 0.00 0.91 0.01 80 1011.0
20260507074828 67 76 0.0 4.0 0.00 0.91 0.01 82 1010.9
20260507074316 67 76 2.0 5.0 0.00 0.91 0.01 83 1010.9
20260507073838 66 78 2.0 5.0 0.00 0.91 0.01 84 1010.9
20260507073343 66 78 0.0 0.0 0.00 0.91 0.01 88 1010.8
20260507072845 65 78 0.0 0.0 0.00 0.91 0.01 89 1010.8
20260507072349 64 78 0.0 0.0 0.00 0.91 0.01 91 1010.8
20260507071320 63 78 0.0 0.0 0.00 0.91 0.01 92 1010.7
20260507070821 64 78 0.0 0.0 0.00 0.91 0.01 93 1010.7
20260507070326 63 78 0.0 0.0 0.00 0.91 0.01 94 1010.7
20260507065826 63 78 0.0 0.0 0.00 0.91 0.01 95 1010.7
20260507065327 62 78 0.0 0.0 0.00 0.91 0.01 95 1010.7
20260507064830 62 78 0.0 4.0 0.00 0.91 0.01 96 1010.6
20260507064311 61 78 0.0 4.0 0.00 0.91 0.01 96 1010.6
20260507063818 60 82 0.0 0.0 0.00 0.91 0.01 96 1010.6
20260507063322 60 82 0.0 0.0 0.00 0.91 0.01 96 1010.6
20260507062822 59 82 0.0 0.0 0.00 0.91 0.01 96 1010.6
20260507062346 60 82 0.0 0.0 0.00 0.91 0.01 96 1010.6
20260507061826 59 82 0.0 0.0 0.00 0.91 0.01 96 1010.6
20260507061350 59 82 0.0 0.0 0.00 0.91 0.01 96 1010.6
20260507060820 59 82 0.0 0.0 0.00 0.91 0.01 96 1010.6
20260507060410 59 82 0.0 0.0 0.00 0.94 0.01 96 1010.6
20260507055838 59 82 0.0 0.0 0.00 0.94 0.01 96 1010.6
20260507055326 59 82 0.0 0.0 0.00 0.94 0.01 96 1010.6
20260507054853 59 82 0.0 0.0 0.00 0.94 0.01 96 1010.4
20260507054332 59 82 0.0 0.0 0.00 0.94 0.01 96 1010.4
20260507053815 59 82 0.0 0.0 0.00 0.94 0.01 96 1010.4
20260507053406 59 82 0.0 0.0 0.00 0.94 0.01 96 1010.1
20260507052825 59 82 0.0 0.0 0.00 0.94 0.01 96 1010.1
20260507052325 59 82 0.0 0.0 0.00 0.94 0.01 96 1010.1
20260507051343 58 89 0.0 0.0 0.00 0.94 0.01 96 1010.1
20260507050812 58 89 0.0 0.0 0.00 0.94 0.01 96 1010.1
20260507050341 58 89 0.0 0.0 0.00 0.98 0.01 96 1009.9
20260507045847 58 89 0.0 0.0 0.00 0.98 0.01 96 1009.9
20260507045330 58 89 0.0 0.0 0.00 0.98 0.01 96 1009.9
20260507044910 58 89 0.0 0.0 0.00 0.98 0.01 96 1009.6
20260507044352 58 89 0.0 0.0 0.00 0.98 0.01 96 1009.6
20260507043816 58 89 0.0 0.0 0.00 0.98 0.01 96 1009.6
20260507043316 58 89 0.0 0.0 0.00 0.98 0.01 96 1009.5
20260507042346 58 89 0.0 0.0 0.00 0.98 0.01 96 1009.5
20260507041812 58 89 0.0 0.0 0.00 0.98 0.01 96 1009.2
20260507041339 58 89 0.0 0.0 0.00 0.98 0.01 96 1009.2
20260507040924 58 89 0.0 0.0 0.00 0.98 0.01 96 1009.2
20260507040408 58 89 0.0 0.0 0.00 0.98 0.01 96 1009.1
20260507035906 58 89 0.0 0.0 0.00 0.98 0.01 96 1009.1
20260507035327 58 89 0.0 0.0 0.04 0.98 0.01 96 1009.1
20260507034914 58 89 0.0 0.0 0.04 0.98 0.01 96 1009.1
20260507034354 58 89 0.0 0.0 0.04 0.98 0.01 96 1009.1
20260507033934 58 89 0.0 0.0 0.04 0.98 0.01 96 1009.1
20260507033412 58 89 0.0 0.0 0.04 0.98 0.01 96 1009.1
20260507032814 58 98 0.0 0.0 0.04 0.98 0.01 96 1009.1
20260507032338 58 98 0.0 0.0 0.04 0.98 0.01 96 1009.1
20260507031819 58 98 0.0 0.0 0.04 0.98 0.01 96 1009.0
20260507031323 58 98 0.0 0.0 0.04 0.98 0.01 96 1009.0
20260507030829 58 98 0.0 0.0 0.04 0.98 0.01 96 1009.0
20260507025859 58 98 0.0 0.0 0.04 0.98 0.01 96 1009.0
20260507025318 58 102 0.0 0.0 0.00 0.94 0.00 96 1009.0
20260507024841 58 105 0.0 0.0 0.00 0.94 0.00 95 1009.1
20260507024323 58 105 0.0 0.0 0.00 0.94 0.00 95 1009.1
20260507023904 58 105 0.0 0.0 0.00 0.94 0.00 95 1009.1
20260507023323 58 105 0.0 0.0 0.00 0.94 0.00 95 1009.2
20260507022823 58 106 0.0 0.0 0.00 0.94 0.00 95 1009.2
20260507022408 58 107 0.0 0.0 0.00 0.94 0.00 95 1009.2
20260507021848 58 117 0.0 0.0 0.00 0.94 0.00 95 1009.0
20260507021350 57 117 0.0 0.0 0.00 0.94 0.00 96 1009.0
20260507020910 57 117 0.0 0.0 0.00 0.94 0.00 96 1009.0
20260507020335 57 117 0.0 0.0 0.00 0.94 0.00 95 1009.0
20260507015815 57 117 0.0 0.0 0.00 0.94 0.00 95 1009.0
20260507015436 57 117 0.0 0.0 0.00 0.94 0.00 95 1009.0
20260507014814 57 117 0.0 0.0 0.00 0.94 0.00 95 1009.0
20260507014317 57 117 0.0 0.0 0.00 0.94 0.00 95 1009.0
20260507013329 57 117 0.0 0.0 0.00 0.94 0.00 95 1009.0
20260507012830 57 117 0.0 0.0 0.00 0.94 0.00 95 1009.0
20260507012352 57 117 0.0 0.0 0.00 0.94 0.00 95 1009.0
20260507011914 57 117 0.0 0.0 0.00 0.94 0.00 95 1009.0
20260507011353 57 117 0.0 0.0 0.00 0.94 0.00 95 1009.0
20260507010933 57 117 0.0 0.0 0.00 0.94 0.00 95 1009.0
20260507005907 57 117 0.0 0.0 0.00 0.94 0.00 95 1009.0
20260507005326 57 117 0.0 0.0 0.00 0.94 0.00 95 1009.0
20260507004853 57 117 0.0 0.0 0.00 0.94 0.00 95 1009.0
20260507004313 57 117 0.0 0.0 0.00 0.94 0.00 95 1009.0
20260507003904 57 117 0.0 0.0 0.00 0.94 0.00 95 1009.0
20260507003332 57 117 0.0 0.0 0.00 0.94 0.00 95 1008.9
20260507002849 57 117 0.0 0.0 0.00 0.94 0.00 95 1008.9
20260507002328 57 117 0.0 0.0 0.00 0.94 0.00 95 1008.9
20260507001829 57 117 0.0 0.0 0.00 0.94 0.00 95 1009.0
20260507001310 58 117 0.0 0.0 0.00 0.94 0.00 95 1009.0
20260507000838 58 117 0.0 0.0 0.00 0.94 0.00 95 1009.0
20260507000343 58 117 0.0 0.0 0.00 0.94 0.00 95 1009.0
20260506235824 58 117 0.0 0.0 0.00 0.94 0.00 95 1009.0
20260506235327 58 117 0.0 0.0 0.00 0.94 0.00 95 1009.0
20260506234814 58 117 0.0 0.0 0.00 0.94 0.00 95 1009.0
20260506234338 58 117 0.0 0.0 0.00 0.94 0.00 95 1009.0
20260506233346 58 117 0.0 0.0 0.00 0.94 0.00 95 1009.0
20260506232831 58 117 0.0 0.0 0.00 0.94 0.00 95 1009.0
20260506232315 58 117 0.0 0.0 0.00 0.94 0.00 95 1009.0
20260506231856 58 117 0.0 0.0 0.00 0.94 0.00 95 1008.8
20260506231355 58 117 0.0 0.0 0.00 0.94 0.00 95 1008.8
20260506230900 58 117 0.0 0.0 0.00 0.94 0.00 95 1008.8
20260506230417 58 117 0.0 0.0 0.00 0.94 0.00 95 1009.0
20260506225820 58 117 0.0 0.0 0.00 0.94 0.00 95 1009.0
20260506225326 58 117 0.0 0.0 0.00 0.94 0.00 95 1009.0
20260506224810 58 117 0.0 0.0 0.00 0.94 0.00 95 1009.0
20260506224316 58 117 0.0 0.0 0.00 0.94 0.00 95 1009.0
20260506223817 58 117 0.0 0.0 0.00 0.94 0.00 95 1009.0
20260506223341 59 117 0.0 0.0 0.00 0.94 0.00 95 1009.0
20260506222853 59 117 0.0 0.0 0.00 0.94 0.00 95 1009.0
20260506222333 59 117 0.0 0.0 0.00 0.94 0.00 95 1009.0
20260506221813 59 117 0.0 0.0 0.00 0.94 0.00 95 1008.9
20260506221317 59 117 0.0 0.0 0.00 0.94 0.00 95 1008.9
20260506220842 59 117 0.0 0.0 0.00 0.94 0.00 95 1008.9
20260506220401 59 117 0.0 0.0 0.00 0.94 0.19 95 1008.9
20260506215823 59 117 0.0 0.0 0.00 0.94 0.19 95 1008.9
20260506215324 59 117 0.0 0.0 0.00 0.94 0.19 95 1008.9
20260506214824 59 117 0.0 0.0 0.00 0.94 0.19 95 1008.7
20260506214405 59 117 0.0 0.0 0.00 0.94 0.19 95 1008.7
20260506213836 59 117 0.0 0.0 0.00 0.94 0.19 94 1008.7
20260506213334 59 117 0.0 0.0 0.00 0.94 0.19 94 1008.9
20260506212845 59 117 0.0 0.0 0.00 0.94 0.19 94 1008.9
20260506211833 60 117 0.0 0.0 0.00 0.94 0.19 95 1008.9
20260506211334 60 117 0.0 0.0 0.00 0.94 0.19 94 1008.9
20260506210816 60 118 0.0 0.0 0.00 0.94 0.19 94 1008.9
20260506210319 60 121 0.0 0.0 0.00 0.94 0.19 94 1008.7
20260506205818 60 121 0.0 0.0 0.00 0.94 0.19 94 1008.7
20260506205356 60 121 0.0 0.0 0.00 0.94 0.19 94 1008.7
20260506204359 60 121 0.0 0.0 0.00 0.94 0.19 94 1008.8
20260506203853 60 121 0.0 0.0 0.00 0.94 0.19 94 1008.8
20260506203351 60 121 0.0 0.0 0.00 0.94 0.19 94 1008.8
20260506202910 60 121 0.0 0.0 0.00 0.94 0.19 94 1008.8
20260506202408 60 123 0.0 0.0 0.00 0.94 0.19 94 1008.8
20260506201826 60 123 0.0 0.0 0.00 0.94 0.19 94 1008.5
20260506201319 61 123 0.0 0.0 0.00 0.94 0.19 94 1008.5
20260506200826 61 123 0.0 0.0 0.00 0.94 0.19 94 1008.5
20260506200318 61 123 0.0 0.0 0.00 0.94 0.19 94 1008.5
20260506195827 61 123 0.0 0.0 0.00 0.94 0.19 94 1008.5
20260506195314 61 123 0.0 0.0 0.00 0.94 0.19 94 1008.5
20260506194817 61 123 0.0 0.0 0.00 0.94 0.19 94 1008.4
20260506194321 61 123 0.0 0.0 0.00 0.94 0.19 94 1008.4
20260506193927 61 123 0.0 0.0 0.00 0.94 0.19 93 1008.4
20260506193844 61 123 0.0 0.0 0.00 0.94 0.19 93 1008.4
20260506193334 61 123 0.0 0.0 0.00 0.94 0.19 94 1008.2
20260506192922 61 123 0.0 0.0 0.00 0.94 0.19 94 1008.2
20260506192329 61 123 0.0 0.0 0.00 0.94 0.19 93 1008.2
20260506191819 61 123 0.0 0.0 0.00 0.94 0.19 93 1008.1
20260506191323 61 126 0.0 0.0 0.00 0.94 0.19 93 1008.1
20260506190925 61 136 0.0 0.0 0.00 0.94 0.19 93 1008.1
20260506190402 61 137 0.0 0.0 0.00 0.94 0.19 93 1008.0
20260506185823 62 147 0.0 0.0 0.00 0.94 0.19 93 1008.0
20260506185331 62 153 0.0 0.0 0.00 0.94 0.19 93 1008.0
20260506184819 62 153 0.0 0.0 0.00 0.94 0.19 93 1008.0
20260506184323 62 153 0.0 0.0 0.00 0.94 0.19 93 1008.0
20260506183829 62 153 0.0 0.0 0.00 0.94 0.19 93 1008.0
20260506182858 62 153 0.0 0.0 0.00 0.94 0.19 92 1007.8
20260506182417 62 153 0.0 0.0 0.00 0.94 0.19 92 1007.8
20260506181855 63 153 0.0 0.0 0.00 0.94 0.19 92 1007.6
20260506181325 63 153 0.0 0.0 0.00 0.94 0.19 92 1007.6
20260506180825 63 153 0.0 0.0 0.00 0.94 0.19 92 1007.6
20260506180426 63 153 0.0 0.0 0.00 0.94 0.19 91 1007.4
20260506180343 63 153 0.0 0.0 0.00 0.94 0.19 91 1007.4
20260506175904 63 153 0.0 0.0 0.00 0.94 0.19 91 1007.4
20260506175328 63 153 0.0 0.0 0.00 0.94 0.19 91 1007.4